Temp
12 12 11 11 11 11 11 11 11 10 9 9 9 11 10 9 8 8 8 9 9 9 9 10 9 9 9 9 10 10 10 10 8 7 7 9 8 8 7 8 8 8 8
11 12 11 11 11 11 11 11 10 10 9 9 9 8 9 9 9 8 8 8 8 9 9 9 9 8 8 8 9 9 9 8 6 6 6 6 7 7 7 7 7 8 8
11 12 11 11 11 11 10 11 10 10 10 10 10 9 9 8 8 8 8 7 8 8 8 7 8 7 7 7 8 8 7 7 5 5 5 6 5 5 7 8 7 7 7
11 11 11 11 11 11 10 10 10 9 9 9 9 9 9 8 8 7 7 7 7 7 7 7 7 6 6 7 7 6 5 4 5 5 5 5 4 4 5 6 7 7 7
10 11 11 10 10 10 10 10 10 9 9 9 8 8 8 7 7 7 7 7 7 7 7 6 6 6 6 6 6 6 4 4 4 4 4 4 3 4 4 4 5 7 7
11 11 10 10 10 10 10 10 10 9 9 9 8 8 8 7 7 7 7 7 7 7 6 6 6 5 6 5 4 5 4 4 3 4 3 3 3 3 3 3 4 4 6
10 10 10 10 10 10 9 9 9 10 9 9 9 8 8 7 7 7 7 7 7 7 6 6 6 5 5 5 3 2 2 2 3 3 3 3 3 3 3 3 3 3 4
10 10 10 10 10 9 9 9 9 9 9 9 9 9 8 7 7 6 6 6 6 6 6 6 6 6 6 5 5 2 2 2 2 2 2 2 2 2 2 2 3 3 3
10 10 10 10 9 9 9 9 9 9 9 9 9 9 8 8 7 7 6 6 6 6 6 6 6 6 6 5 5 4 2 1 2 2 1 1 2 2 2 2 3 3 3
10 9 9 9 9 8 8 9 8 8 8 8 8 8 8 8 7 7 6 6 6 6 6 6 6 6 6 5 5 5 4 4 3 1 1 1 1 1 1 2 2 3 3
9 9 9 8 8 8 8 8 7 7 7 7 8 8 8 7 7 7 6 6 6 5 5 5 5 5 5 5 4 4 4 3 3 3 3 2 2 2 1 1 1 1 2
9 9 8 8 8 9 8 7 6 6 6 7 7 7 7 7 7 7 6 6 6 5 5 5 5 5 5 5 4 4 4 3 3 3 2 2 1 2 2 2 1 1 0
9 8 8 8 7 7 6 6 6 5 5 6 6 7 7 7 7 7 7 6 6 6 5 5 5 5 4 4 4 4 4 4 3 3 3 3 3 3 2 2 1 -0 -1
8 8 8 8 7 7 6 6 5 5 5 6 6 6 6 6 6 6 6 6 6 6 5 5 5 5 5 4 4 4 4 4 4 3 3 3 2 3 2 1 0 -1 -0
8 7 8 7 6 6 6 6 6 6 6 6 6 6 6 6 6 5 5 5 5 5 5 5 4 4 4 4 4 4 4 4 4 3 3 3 3 2 2 1 -1 -2 -1
8 8 7 7 6 6 6 6 6 6 6 6 6 6 6 6 6 6 6 5 5 5 5 5 4 4 4 3 3 3 3 3 3 3 3 2 3 2 2 2 -1 -2 -2
8 8 7 6 6 6 6 6 6 6 6 6 6 6 6 6 6 6 6 6 5 5 5 5 4 5 4 4 3 3 3 3 3 3 3 3 3 2 2 2 1 1 -0
8 7 7 7 6 6 6 6 6 6 6 6 6 6 7 7 6 6 6 6 6 5 5 5 5 5 4 4 3 3 3 3 3 3 3 3 3 2 2 2 1 1 1
7 7 7 6 5 5 6 5 5 5 6 5 5 5 5 5 5 5 5 5 6 5 5 5 5 4 5 4 3 3 3 3 3 3 3 2 3 2 2 2 2 2 2
7 7 7 6 5 5 5 5 5 5 5 5 4 4 4 4 4 4 4 4 4 4 4 5 4 4 4 4 3 3 2 3 3 3 3 2 2 2 1 1 1 2 2
7 6 6 5 4 4 5 5 4 4 4 4 3 3 3 3 3 3 3 3 3 3 3 3 4 4 3 3 3 2 2 2 2 3 3 3 2 1 1 1 1 1 0
6 6 5 4 4 3 4 4 4 4 4 4 3 3 3 3 2 3 3 3 3 3 3 3 3 3 3 3 2 2 2 1 1 2 2 2 1 1 1 0 0 0 -0
6 5 4 3 4 3 2 3 4 3 3 3 3 3 2 2 2 2 2 2 2 1 1 1 1 2 2 3 2 1 1 1 0 0 1 1 1 0 0 -0 -0 -1 -1
5 4 3 3 3 3 3 2 2 2 2 2 3 2 2 2 2 1 1 1 1 1 1 1 1 1 1 2 2 1 1 -0 -0 -0 -0 0 -0 -1 -1 -1 -1 -1 -2
3 3 2 2 2 2 2 2 2 2 2 2 2 2 1 1 2 2 1 1 1 0 -0 -0 -1 -1 -1 -1 -1 -2 -3 -2 -1 -2 -2 -2 -2 -2 -2 -1 -1 -2 -2
2 1 1 1 1 1 2 2 2 2 1 1 1 1 1 1 1 0 1 0 -0 -0 -0 -0 -1 -1 -1 -3 -3 -4 -3 -3 -3 -3 -3 -2 -2 -2 -2 -2 -2 -2 -3
Height
1531 1529 1527 1525 1523 1521 1519 1516 1515 1514 1512 1509 1508 1504 1503 1502 1501 1496 1494 1491 1488 1485 1483 1482 1479 1477 1475 1473 1471 1469 1468 1467 1466 1463 1463 1462 1460 1461 1461 1461 1461 1463 1463
1530 1529 1528 1526 1523 1521 1519 1517 1515 1513 1510 1508 1506 1502 1500 1499 1497 1494 1492 1488 1485 1483 1480 1478 1476 1474 1472 1470 1468 1465 1464 1463 1464 1462 1462 1460 1460 1459 1460 1460 1460 1460 1460
1528 1528 1526 1524 1522 1520 1518 1516 1514 1512 1509 1507 1504 1502 1499 1497 1495 1492 1490 1487 1483 1480 1477 1475 1473 1471 1469 1467 1466 1464 1462 1461 1463 1463 1464 1462 1461 1458 1455 1457 1457 1457 1457
1529 1526 1524 1522 1520 1518 1516 1513 1512 1510 1507 1505 1502 1499 1497 1494 1492 1490 1487 1484 1481 1478 1475 1472 1470 1469 1467 1465 1464 1463 1461 1460 1461 1462 1463 1464 1462 1461 1455 1454 1453 1453 1453
1527 1525 1523 1521 1518 1515 1513 1510 1507 1505 1504 1501 1499 1496 1494 1492 1489 1487 1485 1482 1479 1476 1473 1470 1468 1466 1464 1462 1462 1461 1460 1460 1460 1461 1461 1461 1459 1459 1457 1450 1448 1448 1448
1526 1525 1523 1520 1517 1514 1511 1507 1503 1500 1498 1496 1495 1492 1491 1489 1486 1484 1482 1479 1477 1474 1471 1469 1466 1464 1461 1459 1458 1458 1458 1458 1458 1459 1459 1459 1458 1457 1455 1451 1446 1444 1442
1525 1523 1520 1517 1515 1512 1508 1505 1501 1497 1494 1491 1489 1488 1486 1484 1482 1481 1478 1476 1474 1472 1469 1466 1464 1461 1459 1457 1455 1454 1454 1454 1455 1456 1455 1455 1455 1454 1453 1450 1444 1441 1438
1524 1522 1518 1515 1512 1509 1506 1503 1499 1495 1491 1488 1485 1483 1481 1480 1478 1476 1474 1473 1471 1469 1467 1464 1462 1459 1457 1455 1453 1451 1451 1451 1451 1451 1451 1450 1450 1450 1449 1447 1444 1437 1435
1521 1519 1516 1513 1511 1508 1504 1499 1495 1491 1488 1485 1482 1480 1477 1475 1473 1472 1471 1469 1467 1465 1463 1461 1459 1457 1454 1452 1450 1449 1447 1447 1447 1447 1447 1446 1445 1445 1444 1443 1442 1438 1432
1519 1517 1514 1511 1509 1505 1501 1496 1491 1486 1483 1480 1478 1476 1474 1472 1470 1468 1467 1465 1464 1462 1460 1458 1455 1453 1451 1449 1447 1445 1445 1443 1442 1442 1442 1441 1441 1440 1439 1437 1436 1434 1431
1517 1515 1512 1510 1506 1502 1497 1492 1488 1483 1480 1476 1473 1471 1470 1468 1466 1464 1463 1461 1460 1458 1456 1454 1452 1450 1448 1446 1444 1442 1441 1439 1438 1438 1436 1435 1434 1433 1433 1431 1430 1428 1426
1515 1513 1510 1507 1503 1498 1493 1488 1483 1480 1476 1473 1470 1467 1465 1463 1461 1460 1459 1457 1456 1454 1452 1450 1448 1446 1444 1443 1441 1439 1438 1436 1434 1433 1432 1430 1429 1428 1426 1424 1422 1421 1420
1513 1511 1508 1503 1498 1494 1489 1484 1480 1476 1473 1470 1466 1464 1461 1459 1457 1455 1454 1452 1450 1449 1448 1446 1444 1442 1441 1439 1437 1435 1434 1432 1430 1429 1427 1426 1424 1422 1420 1418 1416 1415 1413
1509 1506 1504 1500 1495 1491 1486 1482 1478 1474 1470 1467 1464 1460 1458 1455 1453 1451 1449 1448 1446 1444 1443 1441 1439 1437 1436 1434 1432 1431 1429 1427 1425 1424 1422 1420 1418 1416 1414 1412 1411 1410 1408
1505 1503 1499 1495 1491 1488 1484 1480 1476 1472 1469 1465 1462 1459 1456 1453 1451 1449 1446 1444 1442 1440 1438 1437 1435 1433 1431 1430 1428 1426 1424 1422 1420 1419 1417 1415 1413 1411 1409 1407 1405 1405 1403
1501 1499 1496 1492 1489 1485 1481 1478 1474 1471 1467 1463 1460 1457 1455 1451 1448 1446 1444 1442 1439 1436 1434 1432 1430 1427 1425 1424 1422 1420 1418 1416 1415 1413 1411 1410 1408 1406 1404 1402 1400 1399 1398
1497 1494 1492 1488 1485 1482 1479 1476 1472 1469 1465 1462 1458 1455 1451 1449 1446 1443 1441 1438 1435 1432 1430 1428 1425 1422 1420 1419 1417 1415 1413 1411 1409 1407 1406 1404 1403 1401 1399 1397 1395 1393 1392
1493 1491 1488 1485 1483 1480 1476 1473 1470 1467 1464 1460 1457 1453 1449 1445 1442 1439 1436 1434 1431 1428 1425 1423 1420 1417 1415 1413 1411 1409 1407 1405 1403 1401 1400 1398 1396 1395 1393 1391 1389 1387 1386
1489 1487 1484 1480 1478 1476 1474 1471 1468 1465 1461 1457 1454 1450 1446 1443 1439 1435 1431 1428 1425 1423 1420 1418 1415 1412 1409 1407 1405 1401 1399 1397 1396 1395 1394 1392 1390 1389 1387 1385 1383 1381 1380
1484 1482 1480 1476 1474 1472 1469 1467 1465 1462 1458 1454 1450 1447 1444 1440 1436 1432 1429 1425 1421 1418 1415 1412 1410 1407 1404 1402 1399 1396 1392 1388 1387 1387 1386 1385 1383 1382 1381 1379 1377 1374 1374
1479 1477 1474 1471 1470 1467 1464 1462 1460 1458 1454 1451 1447 1444 1440 1437 1433 1429 1425 1421 1417 1413 1410 1407 1404 1401 1398 1396 1393 1389 1385 1382 1379 1378 1376 1377 1376 1374 1374 1373 1371 1370 1368
1474 1472 1468 1467 1466 1464 1460 1458 1456 1453 1449 1446 1443 1439 1436 1433 1428 1424 1421 1417 1413 1408 1405 1401 1397 1395 1392 1389 1386 1383 1379 1376 1371 1369 1368 1368 1368 1366 1365 1365 1364 1362 1361
1469 1466 1462 1461 1461 1459 1456 1453 1451 1448 1445 1441 1438 1434 1431 1428 1424 1419 1414 1410 1407 1402 1399 1394 1390 1387 1385 1382 1379 1375 1372 1368 1364 1361 1359 1359 1359 1358 1356 1357 1357 1355 1354
1463 1460 1458 1456 1455 1454 1451 1448 1445 1442 1439 1435 1431 1428 1424 1421 1418 1414 1410 1406 1402 1397 1393 1389 1384 1380 1376 1374 1371 1366 1363 1361 1357 1353 1350 1349 1349 1349 1348 1348 1349 1348 1347
1457 1455 1454 1451 1449 1448 1445 1443 1440 1435 1432 1428 1425 1422 1418 1414 1411 1408 1404 1401 1398 1393 1388 1384 1380 1375 1370 1367 1364 1359 1355 1351 1348 1345 1341 1339 1338 1337 1338 1339 1340 1340 1339
1452 1451 1450 1446 1443 1441 1438 1436 1434 1431 1425 1420 1418 1414 1410 1407 1403 1399 1395 1395 1392 1389 1385 1381 1376 1370 1365 1359 1355 1351 1346 1343 1341 1336 1331 1330 1329 1328 1329 1330 1331 1331 1331
Wind_Speed
11 13 15 16 17 17 17 17 16 14 14 15 17 17 18 18 17 17 17 16 17 18 18 19 18 19 20 19 18 17 18 16 16 17 18 17 9 9 5 6 9 10 11
9 12 14 15 16 17 18 16 16 15 15 16 17 17 18 19 19 18 19 19 18 18 17 17 17 18 16 15 14 14 14 12 9 9 12 8 3 4 5 2 3 5 7
11 12 14 15 15 16 17 17 18 18 17 17 18 19 21 21 20 18 17 18 17 16 16 15 16 16 14 12 11 10 11 9 2 4 4 5 4 20 3 6 6 8 12
11 13 16 17 17 17 19 20 20 20 19 20 21 22 23 24 21 20 19 19 18 17 15 15 15 15 14 12 10 8 7 6 3 2 2 7 11 6 11 11 16 14 11
12 15 16 17 17 18 20 21 22 22 21 20 20 20 21 22 21 20 20 20 19 18 16 16 15 14 14 13 11 8 6 7 6 5 7 10 12 14 12 22 19 22 18
12 13 15 15 16 17 19 20 20 21 20 20 20 21 21 21 21 18 19 19 18 18 17 16 15 15 14 14 11 9 8 8 9 7 10 12 13 15 14 20 26 28 27
12 15 17 15 14 18 21 23 23 22 18 17 18 19 20 19 19 18 20 20 18 17 17 16 15 14 15 14 11 10 10 10 11 12 12 12 13 16 19 22 27 29 29
8 14 16 15 14 15 20 24 27 24 20 18 16 16 16 17 17 16 18 17 18 18 18 17 16 16 16 15 14 12 11 11 12 13 16 17 17 18 18 19 22 29 26
11 15 18 13 13 16 21 27 30 24 20 18 16 16 15 15 15 15 16 16 17 17 16 16 16 16 15 15 15 15 13 13 13 13 14 16 15 16 16 19 20 22 24
13 16 17 13 15 18 25 29 25 21 19 18 16 16 15 15 15 15 15 16 17 18 17 17 17 16 15 15 15 14 15 16 15 16 15 15 17 19 18 18 21 23 26
14 17 17 15 20 25 28 29 25 22 19 17 15 15 15 15 15 15 15 16 16 16 17 17 17 17 17 16 16 16 16 17 16 15 16 18 16 19 21 22 22 23 25
15 17 15 20 24 29 30 27 25 21 18 17 16 15 14 14 14 14 14 16 16 16 17 17 17 17 17 18 18 18 17 18 18 18 18 19 19 21 21 20 21 24 24
15 15 20 25 28 28 25 24 22 20 19 18 17 16 15 15 14 14 14 16 17 17 17 18 18 18 18 18 18 19 19 19 19 19 19 19 20 20 18 17 16 16 16
14 19 22 26 26 24 24 22 19 18 18 17 16 15 13 14 14 14 14 15 16 17 17 18 19 19 19 19 19 19 20 19 19 19 19 19 19 19 18 17 15 14 15
13 17 23 27 22 21 20 18 17 17 17 17 16 14 12 13 14 14 14 14 15 16 17 19 19 20 21 20 20 20 20 20 20 19 19 19 19 20 19 18 15 16 18
13 18 23 22 20 19 19 17 17 17 17 17 16 16 15 14 14 14 15 15 16 17 18 18 20 21 21 20 21 21 22 21 21 21 20 20 20 19 20 19 18 17 19
13 20 23 21 20 19 19 18 19 19 18 16 15 15 16 15 15 15 16 17 18 19 20 20 21 22 21 20 21 22 24 24 24 23 22 21 20 19 19 20 20 19 17
15 21 23 23 20 19 19 17 17 16 17 16 15 16 17 17 17 17 17 17 18 20 21 22 22 23 22 21 22 24 25 26 25 23 22 23 22 20 20 20 21 20 19
16 20 24 24 21 18 18 17 15 15 16 17 18 18 18 19 19 19 19 19 20 21 22 23 24 24 24 22 22 24 27 28 27 25 24 24 24 21 21 22 21 20 17
17 21 26 27 21 18 17 15 15 16 17 18 19 20 20 20 19 20 20 21 21 22 23 24 24 25 27 25 24 24 28 30 30 27 26 24 25 24 23 23 22 22 18
20 25 27 25 20 18 17 17 17 19 20 21 20 19 19 19 19 20 20 21 22 23 24 26 25 26 26 25 25 25 28 31 32 32 31 27 25 26 25 24 24 23 21
23 27 26 20 20 17 18 19 19 21 21 22 21 21 21 22 21 22 22 23 24 25 26 28 30 29 28 28 26 25 26 26 31 34 34 29 27 28 28 26 25 24 23
25 26 22 18 18 18 16 20 22 24 24 24 25 24 24 23 22 24 25 27 28 29 30 31 33 34 31 31 29 27 26 28 29 31 34 32 29 29 30 28 26 23 23
26 23 18 17 17 18 20 22 24 23 23 25 27 27 26 25 25 26 27 28 28 30 31 33 35 37 38 35 32 31 30 27 27 29 28 31 30 31 31 29 27 25 24
20 17 17 17 19 22 25 26 27 26 27 27 29 29 28 28 29 29 29 29 26 26 29 32 35 38 39 37 34 33 33 34 31 28 29 27 31 35 34 32 29 27 25
15 16 18 21 24 25 26 28 28 27 28 29 30 31 32 32 31 32 33 28 27 27 28 30 34 38 38 39 36 33 32 32 30 31 33 33 31 33 35 35 31 28 26
Wind_Direction
16 18 17 16 15 9 1 356 345 332 329 327 321 317 314 312 310 311 310 309 306 303 303 301 301 302 302 301 299 295 295 292 296 299 302 311 311 282 282 284 272 267 273
7 8 1 357 355 355 359 354 340 334 331 328 326 326 324 321 317 318 318 316 315 312 311 309 308 310 310 307 309 308 305 313 314 319 332 348 23 112 323 270 293 276 285
347 341 338 337 335 339 337 337 340 340 336 330 332 332 328 323 318 315 316 317 317 316 315 313 314 315 314 310 313 316 315 324 338 315 336 331 329 324 125 292 258 278 287
346 341 340 337 332 321 317 317 315 318 325 324 323 322 324 322 319 319 320 322 322 320 317 316 317 317 315 305 303 304 310 312 314 265 261 298 307 324 313 289 293 300 294
344 349 346 344 340 330 321 313 306 302 305 307 313 317 321 323 314 317 321 322 322 320 317 317 315 314 314 302 290 288 281 286 288 288 298 297 309 282 295 301 301 302 306
348 348 342 340 346 349 347 342 325 310 304 298 296 302 310 317 313 311 317 320 321 321 319 316 314 314 314 305 298 283 265 268 274 274 279 287 292 288 295 294 300 307 310
339 344 346 343 343 353 358 355 348 340 327 307 299 298 299 304 312 311 316 318 318 318 316 314 311 313 313 312 298 304 300 280 273 276 277 279 279 280 282 287 293 301 304
339 352 348 337 334 340 341 341 344 338 331 323 315 309 301 297 304 307 310 314 315 318 319 317 317 318 318 315 316 300 296 298 292 285 270 277 278 279 279 286 294 298 299
322 335 341 337 334 329 331 331 330 326 323 315 314 314 312 303 301 303 307 309 309 311 313 314 315 315 314 315 313 308 301 286 285 283 286 285 284 276 274 272 277 289 299
334 341 342 334 332 330 328 328 327 323 318 314 307 312 315 311 307 305 308 307 307 309 310 311 312 314 313 312 309 309 302 295 285 278 274 276 275 276 280 278 272 271 280
335 337 336 333 332 330 331 330 323 316 314 310 306 300 306 311 312 310 309 309 308 306 307 309 311 313 312 310 306 305 305 304 305 300 291 289 293 284 281 275 272 271 274
338 336 336 331 330 330 331 332 327 320 313 306 304 306 302 302 301 304 306 308 310 307 305 305 307 309 309 308 306 304 301 297 295 293 289 289 290 291 292 287 280 276 277
329 342 340 340 340 339 337 333 336 332 325 310 306 302 298 298 299 296 299 301 304 306 305 305 305 306 306 304 302 301 299 297 296 297 296 297 295 297 296 293 290 292 294
323 333 337 340 339 338 339 339 341 338 336 332 321 315 304 295 299 301 298 297 299 302 301 300 301 301 299 300 301 299 299 297 296 295 295 296 295 295 294 291 292 300 298
315 330 336 335 336 338 346 345 347 347 345 344 344 339 327 311 307 306 304 303 305 305 302 301 301 299 298 300 299 298 297 296 295 294 293 294 294 294 294 290 289 285 287
309 325 330 328 326 330 339 347 349 350 349 347 342 338 335 333 327 320 315 313 310 308 306 305 303 299 295 295 294 293 294 293 293 292 289 290 292 295 293 290 273 274 279
303 324 327 324 316 319 324 327 329 334 335 338 339 341 342 340 334 328 322 319 310 306 307 307 308 305 298 293 290 290 290 291 292 293 294 291 290 290 290 292 294 286 268
301 321 324 321 308 310 312 314 318 323 329 335 335 334 333 334 332 327 325 323 317 314 311 308 306 305 302 296 288 286 286 288 289 289 289 287 288 288 289 289 285 286 288
291 314 321 314 306 307 306 309 316 319 322 327 332 334 332 331 331 330 328 325 318 316 314 312 310 307 303 300 292 285 283 283 284 285 284 283 283 287 286 288 289 289 294
288 310 316 306 297 302 301 305 313 320 322 324 329 331 329 327 326 326 327 326 324 321 319 315 313 309 305 305 300 291 285 282 282 282 278 277 280 280 281 283 286 288 298
292 308 307 294 291 295 298 300 309 318 319 321 326 330 330 330 331 332 333 332 330 327 325 320 317 315 315 310 300 294 289 286 284 280 277 275 275 273 277 279 280 285 288
296 306 301 289 289 295 297 300 310 314 312 313 317 321 323 326 328 328 331 332 332 331 330 327 324 323 319 314 311 301 295 293 285 281 280 278 275 270 270 272 276 279 282
304 303 295 284 287 299 308 310 311 312 311 310 313 317 319 322 325 327 331 332 334 333 332 330 328 325 322 317 312 308 299 288 287 285 282 279 272 269 268 271 274 275 278
300 302 289 290 297 303 314 315 316 312 308 308 313 314 315 319 323 323 326 327 331 330 330 329 326 324 320 317 313 304 298 294 285 284 282 278 273 268 267 267 270 273 276
297 292 293 297 304 309 309 313 321 321 316 311 311 312 312 315 316 316 317 318 323 325 326 325 322 321 319 317 310 303 300 298 292 285 279 273 266 264 264 266 269 271 271
288 291 302 307 305 304 304 299 301 314 313 313 314 313 312 311 310 309 309 311 315 317 319 320 320 318 314 317 317 304 294 287 285 283 279 274 270 268 266 265 266 265 267